Theta_e
327 324 322 322 321 319 318 318 318 317 316 316 316 315 315 315 315 316 316 315 314 313 311 310 310 310 310 310 310 310 310 310 310 310 311 310 310 311 312 312 312 310 308 308 309 311 313 312 310 308 307 307 306 305 303 301 302 302 304 304 302 301 303
326 323 322 321 319 318 317 316 316 315 315 315 315 314 314 314 314 314 314 314 313 311 310 310 311 311 310 310 311 310 310 310 310 310 310 309 310 310 310 310 310 308 307 306 306 308 309 310 309 307 306 305 304 303 302 300 301 301 303 302 301 301 302
325 323 321 319 318 317 316 314 314 313 313 313 313 313 312 312 312 313 313 313 313 311 311 311 311 311 310 310 310 310 310 309 309 308 308 308 308 308 308 307 307 307 306 305 305 306 307 307 307 306 305 303 302 302 301 300 300 301 302 301 300 301 301
324 322 320 318 317 315 314 313 312 311 311 311 311 311 310 311 312 312 312 312 311 311 311 311 311 311 310 309 309 309 308 308 308 308 307 307 306 306 305 305 305 305 304 304 304 304 304 304 304 303 302 301 301 301 300 299 299 299 301 300 299 300 300
324 322 320 318 316 315 313 312 311 310 309 308 309 309 309 310 311 311 311 310 309 309 309 310 310 310 309 308 308 307 307 307 307 306 306 305 304 304 304 303 303 303 302 301 301 300 301 301 301 301 300 300 300 300 298 298 298 298 300 299 298 299 298
323 322 319 317 315 314 313 312 311 309 307 307 308 308 308 309 309 309 309 308 307 307 308 309 308 308 308 307 306 306 306 306 306 305 304 304 303 303 303 302 302 301 300 299 297 298 298 299 299 299 299 299 299 298 298 297 297 298 298 298 297 298 298
322 320 318 315 314 314 313 312 311 309 307 307 308 308 307 307 307 307 307 307 306 306 306 307 306 306 306 306 306 305 305 305 305 305 304 303 302 302 302 301 301 300 298 296 296 296 297 297 298 298 298 297 297 297 297 297 297 297 297 297 297 297 297
321 319 316 314 314 313 313 312 310 308 307 306 306 307 307 307 306 306 306 306 306 305 305 305 305 306 305 305 305 305 305 305 305 304 303 302 302 301 301 301 300 298 296 295 296 296 296 296 296 297 297 297 296 296 296 296 296 296 297 297 297 297 297
320 317 314 313 313 313 312 311 309 308 307 306 305 305 306 306 306 305 305 305 304 304 304 304 304 305 305 305 305 305 304 304 304 303 302 302 301 301 301 300 298 296 295 296 296 296 296 296 296 296 296 296 296 296 296 296 296 296 296 296 296 296 296
318 316 314 313 312 312 311 310 308 307 306 305 305 305 304 305 305 305 305 304 304 304 304 304 304 304 304 304 304 303 303 303 303 302 302 301 301 300 299 297 296 295 296 296 296 296 295 295 295 295 295 296 296 296 295 296 296 296 296 296 296 296 296
316 314 313 312 311 310 308 307 306 306 306 305 305 304 304 304 304 304 304 304 304 303 303 303 304 304 304 304 303 303 302 302 302 302 301 301 300 300 298 296 295 296 296 296 295 294 294 294 294 295 295 295 295 295 295 295 295 296 296 296 296 296 296
314 313 312 311 310 309 307 306 306 306 305 305 304 304 303 303 303 303 303 304 304 304 303 303 303 304 304 304 303 303 302 302 302 301 301 300 299 299 298 296 296 296 296 295 293 292 293 294 294 294 295 295 295 295 295 295 295 295 296 296 295 295 295
313 312 311 310 309 308 307 307 306 305 304 304 304 303 303 302 302 302 302 303 303 304 304 303 303 304 304 303 303 303 302 302 301 301 300 299 299 298 297 296 296 296 296 294 293 292 293 294 294 295 295 295 295 295 295 295 295 295 295 295 295 295 295
312 311 310 309 308 308 307 306 305 304 304 303 303 302 302 301 301 301 301 302 303 303 304 304 303 304 304 303 303 303 302 301 301 300 300 299 299 298 297 297 297 296 295 294 293 293 293 294 295 295 295 295 295 295 295 295 295 295 295 295 295 295 295
311 310 309 309 308 307 307 306 305 304 303 303 302 301 300 299 299 298 299 300 302 303 304 304 303 303 303 303 302 302 302 301 301 300 299 299 298 297 297 297 297 296 295 295 294 293 293 293 294 295 295 295 295 295 295 295 295 295 295 295 295 295 295
311 310 309 308 308 307 306 305 305 304 303 302 302 301 299 297 296 295 296 298 300 303 304 304 303 303 303 302 302 302 301 301 300 300 299 298 298 297 297 297 296 296 295 295 294 293 293 293 293 294 294 294 295 295 295 295 295 295 295 295 295 295 295
310 308 308 307 307 306 306 305 305 303 303 302 302 300 298 295 294 293 294 296 299 302 303 303 303 303 303 302 302 301 301 300 300 299 299 298 297 297 297 297 296 296 295 295 294 293 293 293 293 293 293 294 294 295 295 295 295 295 295 295 295 295 294
309 308 307 307 306 306 306 305 304 303 303 302 301 298 295 293 293 293 294 295 299 302 303 303 303 303 302 302 302 301 300 300 299 299 298 298 297 297 297 297 296 296 295 295 294 293 293 293 293 293 293 293 294 294 294 294 294 295 295 295 295 294 294
308 307 307 306 306 306 305 305 304 303 303 302 299 296 294 293 293 294 295 296 299 301 303 303 302 302 302 302 301 300 300 300 299 299 298 298 297 297 297 297 296 296 295 294 293 293 293 293 293 293 293 293 293 293 293 294 294 294 294 294 294 294 294
307 307 306 306 305 305 305 304 303 303 302 301 298 296 293 293 293 294 295 297 299 300 302 302 302 302 302 301 300 299 299 299 299 298 298 297 297 297 296 296 296 296 294 293 293 293 293 293 293 293 293 293 293 293 293 293 294 294 294 294 294 294 294
306 306 306 305 305 305 305 304 303 303 301 300 298 296 293 293 294 295 296 297 298 300 301 301 301 302 301 301 300 300 299 299 299 298 298 297 297 297 296 297 296 295 294 293 293 293 293 293 293 293 293 293 293 293 293 293 293 294 294 294 294 294 294
306 306 306 305 305 305 305 304 303 302 301 300 298 295 292 293 294 295 296 297 298 299 300 301 301 301 301 301 300 300 299 299 298 298 298 297 297 297 297 297 296 294 294 293 293 293 293 293 293 293 293 293 293 293 293 293 293 293 293 293 294 294 294
305 305 305 305 305 304 304 304 302 302 301 299 296 293 293 294 294 295 296 297 297 298 299 299 300 300 300 300 300 300 299 299 298 298 298 298 297 297 297 296 295 294 294 294 293 293 294 294 293 294 294 294 294 293 293 293 293 293 293 293 293 293 293
305 305 305 305 305 304 304 303 302 301 299 295 293 292 293 293 294 295 296 296 297 298 298 298 299 299 299 300 299 299 299 298 297 297 298 298 297 297 296 296 295 295 294 294 294 294 294 294 294 294 294 294 294 293 293 293 293 293 293 293 293 293 293
305 305 305 305 305 304 304 303 302 300 296 292 291 292 292 292 293 294 295 296 296 297 297 298 298 299 299 299 299 299 299 298 298 298 298 298 297 296 296 295 295 295 295 294 294 294 294 294 294 294 294 294 293 293 293 293 293 293 293 293 293 293 293
304 304 304 304 304 304 303 302 301 300 297 294 292 291 291 291 292 292 293 294 295 296 297 297 298 298 298 298 298 298 298 298 298 298 298 298 297 296 296 295 296 296 295 294 294 294 294 294 294 294 294 294 294 293 293 293 293 293 293 293 293 293 293
304 304 304 304 304 304 303 302 301 301 300 298 296 294 292 291 291 291 291 292 292 294 295 296 297 298 297 297 297 297 297 297 297 298 298 297 297 296 295 296 296 295 294 294 294 294 294 294 294 294 294 294 293 293 293 293 293 293 293 293 293 293 293
304 304 304 304 304 304 303 302 302 302 301 301 300 299 297 295 293 291 291 291 291 291 292 293 295 296 297 296 295 293 294 296 297 297 297 297 297 296 296 296 296 295 294 294 294 294 294 294 294 293 293 293 293 293 293 293 293 293 293 292 292 292 292
304 304 304 304 304 304 303 303 302 302 302 302 301 301 300 299 296 293 291 291 290 290 290 291 292 293 294 294 292 291 291 294 296 297 296 297 296 296 296 296 296 295 294 294 294 294 294 294 294 293 293 293 293 293 293 293 293 293 292 292 292 292 292
304 304 304 304 303 303 303 303 303 302 302 302 301 301 301 300 296 294 293 292 291 291 290 290 290 290 291 291 291 290 291 293 295 296 296 296 296 295 295 295 295 294 294 294 294 294 294 294 294 293 294 294 293 293 293 293 292 292 291 292 292 292 292
304 303 303 303 303 303 303 303 303 302 302 302 301 301 301 299 295 294 295 294 293 293 291 290 290 290 290 290 290 290 291 293 294 295 295 295 294 294 294 294 294 294 294 294 294 294 294 294 294 294 294 293 293 293 293 292 292 291 291 292 292 292 292
303 303 303 303 302 302 302 302 302 302 302 302 302 301 300 297 295 296 297 296 296 294 293 291 290 290 290 290 290 291 292 293 294 294 294 294 294 294 294 294 294 294 294 294 294 294 294 294 294 294 294 293 293 293 292 292 291 291 291 291 291 291 291
303 303 302 302 301 301 301 301 300 299 299 299 299 299 297 296 297 298 298 298 297 295 294 292 290 290 290 290 290 291 293 294 294 294 294 294 293 294 294 294 294 294 294 294 294 294 294 294 293 293 293 293 293 293 292 291 291 291 291 291 291 291 291
303 302 301 301 301 301 301 300 298 296 295 295 296 297 297 298 299 299 299 299 298 296 294 293 291 290 290 290 291 292 293 294 294 294 294 294 293 294 294 294 294 294 294 295 294 294 294 293 293 293 292 292 292 292 291 291 291 291 291 291 291 291 291
302 301 301 301 301 301 300 299 298 297 297 298 298 298 299 299 299 299 299 299 299 297 295 294 292 290 290 290 291 292 293 294 294 294 293 293 293 294 294 294 294 294 295 295 294 294 294 293 293 292 292 292 292 291 290 290 291 291 291 291 290 291 291
301 301 301 301 300 300 300 299 299 299 299 300 300 299 299 299 299 299 299 299 299 297 295 294 292 290 290 291 292 292 293 294 293 293 293 293 294 294 294 295 295 295 295 295 294 293 293 293 293 292 292 291 291 291 290 290 290 290 290 290 290 290 291
301 301 301 300 300 300 300 300 300 300 300 300 300 299 300 300 299 299 299 299 299 298 296 294 293 291 290 291 292 293 293 293 293 293 293 294 294 294 295 295 295 295 295 294 294 293 293 293 293 292 292 291 291 291 290 290 290 290 290 290 290 290 290
Wind_Speed
20 20 18 16 16 16 16 14 13 12 10 9 9 9 9 8 9 10 11 12 12 13 13 15 18 19 20 20 21 22 23 23 23 23 21 20 19 17 17 18 17 18 20 19 13 8 4 4 10 15 19 23 16 17 27 29 28 26 25 27 26 27 28
21 21 19 17 17 16 16 15 14 13 11 10 9 9 9 9 9 11 11 12 13 15 17 19 20 20 20 20 20 21 22 23 22 21 21 21 20 17 17 17 16 17 19 20 20 15 8 5 6 9 20 25 17 17 25 28 27 23 22 24 25 26 26
22 22 20 19 18 17 17 16 15 15 13 12 10 10 10 10 11 12 13 14 14 16 17 18 18 18 19 19 19 20 21 22 21 21 22 23 23 23 22 21 18 17 15 16 17 16 11 7 5 7 16 21 17 18 25 28 25 21 20 22 25 26 25
22 21 21 20 19 19 19 18 17 15 14 13 11 12 12 13 14 15 16 16 16 16 17 17 17 17 18 19 19 20 20 21 20 21 23 23 23 24 24 24 22 20 17 14 15 15 11 7 6 6 12 18 16 19 26 26 23 19 17 21 26 26 25
19 19 20 20 19 20 20 18 17 16 15 14 14 14 15 15 16 17 17 17 17 17 17 17 17 16 17 18 18 19 19 20 20 20 22 22 22 23 24 24 23 24 23 20 18 18 15 11 8 5 10 16 12 17 27 26 22 19 14 19 27 26 26
18 18 20 20 20 20 19 17 16 16 16 15 15 16 16 16 17 17 18 18 18 18 17 17 17 17 18 19 19 19 19 20 20 21 23 23 22 22 23 24 24 24 24 22 21 21 18 16 14 9 11 14 10 15 25 24 24 20 14 21 28 26 28
19 19 20 20 20 19 17 16 15 15 16 16 16 16 16 17 18 18 18 18 18 17 17 17 18 18 19 19 20 20 20 19 19 20 22 22 22 22 22 23 24 24 23 22 23 22 21 18 16 12 11 12 10 13 19 22 23 19 17 26 29 25 28
19 20 20 20 20 18 16 15 15 15 16 16 15 16 15 16 17 17 17 17 17 17 17 17 17 18 18 19 20 21 20 19 18 20 20 21 22 21 21 22 23 22 22 23 23 22 21 19 18 16 13 9 8 9 12 17 20 17 19 29 29 25 29
20 22 21 19 18 17 14 13 15 16 16 16 16 15 15 16 16 17 17 17 17 17 17 17 17 18 18 19 19 19 19 18 18 19 20 21 21 21 21 21 21 22 22 22 23 22 22 20 19 18 17 12 8 6 7 10 13 14 21 29 28 27 32
21 22 20 18 17 16 14 14 16 17 16 16 17 16 16 16 16 17 17 18 17 17 18 17 17 18 18 18 19 18 18 17 18 19 19 20 20 20 21 21 21 22 22 22 23 22 21 20 19 18 17 16 11 7 5 7 8 13 23 29 27 30 35
21 20 19 19 18 16 16 16 18 18 17 17 17 16 16 16 15 15 16 17 18 18 18 18 18 18 18 18 18 18 18 16 17 18 18 18 19 19 20 20 21 22 21 22 23 24 22 20 19 18 16 16 14 10 7 7 7 12 21 27 29 32 37
20 19 19 19 18 17 18 19 19 18 17 17 16 15 14 14 14 14 15 16 17 18 18 18 18 18 17 17 16 17 16 15 16 17 17 17 17 17 18 19 20 21 20 22 25 26 25 22 19 18 17 16 16 13 11 8 7 12 19 23 27 33 34
19 19 19 19 18 19 19 19 18 18 17 16 14 13 13 12 12 13 14 15 16 16 17 17 17 17 17 16 15 15 15 14 15 16 16 16 16 16 17 17 18 18 19 22 26 27 27 23 19 18 17 17 16 15 14 11 8 12 18 21 25 30 31
20 19 19 19 20 20 19 19 18 18 17 15 13 12 11 10 10 10 12 13 14 15 16 16 16 16 16 16 15 14 13 13 14 14 14 15 15 16 15 15 15 16 19 22 25 26 25 23 19 17 17 17 18 17 16 15 12 12 18 22 24 26 28
20 20 20 20 21 20 19 19 18 17 17 14 12 10 10 9 8 9 10 12 14 14 15 15 16 15 16 15 14 13 12 12 12 12 12 13 13 14 14 13 13 15 18 22 23 23 23 23 20 17 17 17 19 19 18 18 16 15 18 23 25 26 27
21 21 21 21 21 20 20 19 17 17 17 15 12 10 8 8 8 9 10 12 14 14 15 15 15 15 15 15 14 13 11 10 10 11 11 11 11 11 11 11 12 14 17 21 22 21 20 21 21 19 18 17 18 20 20 19 19 18 19 22 25 26 27
23 22 22 22 22 21 20 19 18 18 17 14 12 10 7 7 8 10 11 13 15 15 15 14 14 14 14 13 13 12 11 9 9 10 10 10 10 9 9 10 11 13 17 20 21 21 19 19 20 20 19 19 18 19 21 21 21 20 21 22 25 27 28
24 23 24 23 23 22 21 19 19 18 16 14 11 9 8 8 10 11 12 13 15 16 15 14 14 13 12 11 12 12 11 9 9 9 8 9 10 8 7 8 10 12 16 19 20 20 18 18 19 20 20 21 20 21 22 23 24 23 22 23 25 28 28
24 24 24 24 23 23 21 20 19 17 15 13 12 10 10 10 11 12 13 14 15 15 14 13 13 12 11 12 12 11 10 8 8 8 8 8 8 7 7 8 9 11 15 18 18 18 17 18 19 21 22 23 23 24 25 26 26 25 24 24 26 27 28
24 24 23 24 24 23 22 20 19 17 14 13 11 10 10 11 12 13 13 14 15 15 14 13 13 12 11 11 11 10 9 8 8 7 6 7 6 8 8 6 7 11 15 16 16 16 16 17 19 22 23 25 26 26 26 27 27 26 25 25 25 26 27
24 24 24 24 24 23 22 21 19 17 14 12 11 10 10 11 13 14 14 15 15 14 14 13 12 11 10 9 9 8 7 7 7 7 5 5 4 6 7 5 7 12 15 15 15 15 16 18 20 23 25 27 28 28 28 28 28 27 26 25 25 26 27
25 25 25 25 25 24 22 21 19 17 15 13 11 10 10 12 13 14 15 15 15 14 14 13 11 10 9 8 8 7 6 6 6 5 4 3 2 3 4 4 8 13 14 15 15 16 17 19 21 25 28 29 30 29 28 28 28 27 25 24 25 26 25
25 25 25 26 25 24 23 21 20 18 16 13 12 11 12 13 14 14 14 14 14 14 13 12 11 9 8 8 7 5 5 6 6 4 2 2 1 2 3 3 9 13 15 16 17 17 18 21 23 26 29 30 31 30 29 28 28 27 25 23 24 26 24
26 25 26 26 26 25 24 23 22 20 17 15 14 14 14 15 14 13 13 13 13 13 12 11 10 8 7 6 4 4 5 6 5 6 3 1 2 3 3 3 11 15 17 17 17 18 20 24 26 28 29 29 30 29 29 29 29 29 27 25 26 27 25
27 27 27 27 26 26 25 26 24 22 19 17 16 17 16 15 15 13 13 13 12 12 11 9 8 7 6 5 4 4 5 5 4 6 5 1 3 4 2 5 13 17 19 18 17 20 24 27 29 29 29 29 30 28 27 27 28 30 29 27 27 28 28
28 28 28 27 26 26 26 27 25 22 20 18 17 18 17 16 15 14 13 12 12 11 10 8 7 6 5 4 3 2 3 4 4 4 5 3 4 5 1 7 13 18 18 17 19 23 27 30 31 30 30 30 30 28 27 28 28 29 30 29 29 29 32
29 28 28 28 27 26 26 26 24 22 20 18 16 17 17 16 16 15 13 12 12 10 9 7 6 5 4 3 2 2 2 1 4 4 4 4 4 3 2 8 14 17 17 18 21 25 29 31 32 31 30 30 29 29 29 30 30 30 30 30 31 32 35
30 29 29 29 28 27 26 25 24 22 20 18 15 14 13 13 13 14 14 13 13 12 10 7 5 4 3 2 1 0 1 2 3 5 6 5 4 1 4 9 14 17 18 20 23 26 29 30 29 29 29 28 28 30 31 31 31 32 32 32 33 34 36
31 30 30 29 29 28 26 24 23 22 20 18 15 13 12 10 10 12 13 13 13 13 11 8 5 3 2 1 1 3 4 3 4 5 7 7 5 3 4 8 13 16 19 21 24 25 26 26 26 28 30 29 29 31 32 31 31 32 33 34 34 36 37
31 31 30 29 29 28 27 25 23 22 21 19 17 15 12 11 10 10 12 12 13 13 12 9 7 5 5 5 5 6 6 4 5 6 7 6 5 4 4 7 12 16 20 23 24 24 23 23 25 28 30 31 31 32 32 33 33 34 34 34 35 36 37
32 32 31 30 30 28 27 26 24 22 21 19 18 16 13 12 12 11 10 10 10 11 11 9 8 7 7 8 8 8 7 6 6 6 6 5 4 4 6 9 12 17 21 23 22 22 22 23 25 28 30 31 32 32 32 34 36 36 35 35 36 37 38
33 33 32 30 30 28 27 26 24 23 21 20 18 16 15 14 14 12 10 8 7 8 10 9 8 7 8 9 9 8 7 8 9 8 7 6 5 6 9 11 14 18 22 21 19 21 23 24 26 28 29 31 31 31 32 34 35 36 36 36 38 39 39
34 33 32 30 29 28 27 25 23 22 21 20 19 18 16 15 14 12 10 8 6 6 7 8 8 8 8 8 9 8 8 9 10 9 8 7 8 10 12 13 15 18 21 19 17 21 24 24 26 27 27 29 30 29 32 33 33 34 35 36 38 38 39
34 32 31 30 30 28 26 24 23 22 22 21 20 19 18 15 13 12 10 8 7 5 5 7 8 8 8 8 7 6 7 8 8 7 7 8 10 12 14 15 16 18 20 18 16 20 23 24 24 25 25 26 26 27 31 32 33 34 34 35 37 38 39
34 32 31 30 29 28 25 24 23 22 22 21 20 18 17 15 13 12 11 9 8 6 4 5 7 8 7 7 7 5 6 5 6 7 8 10 12 13 15 16 16 18 18 17 16 19 22 23 23 24 25 25 25 28 31 31 32 33 34 35 36 37 38
33 32 31 30 29 27 26 24 24 23 22 22 20 18 17 16 15 14 13 12 10 7 4 3 5 6 7 7 6 5 4 4 5 7 8 11 13 14 15 15 16 17 16 15 16 19 22 22 22 24 26 27 26 29 31 31 32 32 33 34 35 36 37
33 32 31 30 28 28 27 26 25 24 24 23 22 20 18 18 17 16 15 15 13 10 6 3 2 5 5 5 5 4 3 3 5 6 8 10 12 14 15 15 16 17 15 13 16 20 22 21 22 24 27 28 28 30 31 32 32 32 32 34 34 34 37
Wind_Direction
142 134 131 127 123 121 115 109 103 100 99 95 91 88 92 98 101 105 101 97 90 80 75 74 76 77 77 76 73 73 73 69 68 68 62 54 52 50 52 61 63 55 50 48 41 22 359 311 332 346 353 356 4 9 5 7 8 8 12 12 7 7 10
143 138 135 130 126 123 115 108 104 101 98 94 90 86 91 96 99 105 105 101 93 84 82 81 80 79 77 74 72 72 72 69 68 68 64 59 59 60 59 62 64 56 51 48 41 34 27 346 333 338 340 345 353 358 359 2 3 6 11 7 5 7 7
142 139 135 130 126 123 116 110 103 98 94 91 90 88 92 99 102 106 107 103 98 93 89 85 83 82 79 76 73 74 74 72 71 69 69 71 72 72 69 66 64 57 51 44 38 34 28 10 343 332 339 342 338 337 349 356 356 2 8 3 4 7 3
145 141 136 132 129 124 116 110 103 96 93 91 94 96 98 104 106 106 105 102 100 98 94 90 88 86 84 81 77 76 75 73 72 71 72 74 74 72 70 67 64 61 57 51 43 39 36 22 351 332 338 338 327 324 339 348 351 360 4 359 2 3 357
149 145 140 134 131 125 118 112 105 98 94 95 100 102 103 108 107 106 105 100 97 96 95 94 90 87 87 84 79 76 75 74 72 70 70 69 69 70 70 67 65 62 58 54 49 45 43 35 19 355 339 341 330 323 335 342 347 355 359 355 358 357 353
149 146 140 133 131 128 123 118 111 104 100 100 104 105 106 108 107 106 104 98 95 94 96 96 90 88 87 83 79 76 75 76 72 70 70 69 70 72 70 67 62 58 54 49 49 47 44 36 26 9 347 348 335 323 334 340 343 349 351 351 354 353 351
146 143 139 135 133 131 126 120 116 112 108 105 108 109 108 108 106 104 103 99 96 94 96 96 91 89 88 83 80 77 76 77 75 74 76 75 74 71 68 65 59 55 53 51 51 48 42 36 27 11 350 346 339 331 334 337 342 346 342 343 349 351 350
145 141 139 137 136 133 127 121 118 118 113 109 111 113 112 110 106 104 103 100 97 94 95 95 91 89 87 84 82 79 78 78 76 78 82 80 76 71 65 61 56 55 55 51 49 45 39 35 28 18 7 354 343 342 337 332 338 343 338 338 343 348 349
145 143 139 136 135 133 127 124 123 120 116 112 111 113 113 112 108 106 103 100 98 96 94 93 90 87 86 85 83 81 81 79 76 79 82 78 73 69 61 55 56 58 54 48 43 37 32 30 26 22 19 13 355 342 341 334 334 336 339 340 340 341 345
144 143 141 137 133 130 125 125 127 123 118 116 115 114 114 114 112 109 105 102 100 98 95 93 89 86 84 83 81 79 80 80 78 78 77 74 69 63 57 56 58 57 50 43 38 30 25 22 22 22 21 19 10 352 339 338 330 328 335 339 336 334 339
142 141 141 138 134 129 124 125 126 124 122 123 122 118 117 116 114 112 108 104 101 98 96 94 90 87 85 83 80 78 78 81 82 79 73 70 66 58 55 58 56 51 46 41 33 25 23 21 21 23 24 24 20 10 349 331 323 325 330 333 333 332 335
142 140 140 138 135 131 127 127 127 127 128 128 125 121 117 115 115 115 112 109 105 100 97 95 93 90 87 85 81 78 81 83 82 79 72 66 61 52 52 56 52 47 43 38 31 25 23 25 27 29 29 28 24 14 356 335 319 327 330 328 329 332 334
144 142 140 139 136 133 133 134 133 132 132 129 126 123 118 116 116 116 115 114 110 104 100 98 97 94 91 88 84 83 88 88 82 79 72 64 57 47 49 56 52 45 39 33 28 25 24 28 33 35 32 25 20 11 353 337 318 321 329 329 328 331 334
146 143 142 141 138 136 137 137 135 134 131 128 128 125 119 117 117 118 119 119 118 112 105 102 101 98 95 92 86 86 91 90 84 80 71 62 54 47 52 60 53 41 34 29 25 24 25 28 31 32 27 17 10 6 352 335 319 313 324 330 330 330 334
147 146 145 143 140 139 139 137 137 136 130 127 127 123 118 118 118 122 125 125 126 122 112 107 107 102 97 94 91 90 93 91 87 80 69 59 51 50 58 61 51 39 31 26 24 23 24 26 25 22 17 10 2 359 353 336 320 310 315 324 328 329 332
151 150 147 145 144 142 141 140 142 139 131 127 122 116 114 115 114 118 124 129 133 130 120 113 111 107 102 100 98 98 97 92 87 82 71 59 54 58 62 57 46 34 25 23 20 18 21 23 21 15 9 4 355 350 349 338 322 309 307 315 323 324 326
154 151 148 147 146 144 143 143 143 139 133 127 120 114 108 105 109 111 116 127 134 133 126 119 116 112 107 106 107 106 102 97 93 88 76 67 65 67 63 49 38 26 20 20 17 13 16 18 15 10 5 360 353 344 341 337 326 314 304 306 315 319 320
154 151 149 148 146 145 145 145 144 140 136 129 122 117 106 102 110 110 110 122 132 134 129 122 121 119 112 110 113 109 103 106 108 96 80 75 74 69 56 37 27 21 18 17 14 9 10 12 9 5 359 355 350 343 338 335 329 319 308 302 307 314 317
155 154 153 150 148 146 147 148 146 143 140 133 123 114 104 102 110 111 109 117 128 133 131 125 124 123 116 113 113 106 101 115 124 107 86 84 77 57 43 30 19 19 19 15 12 8 6 7 3 358 354 350 346 341 337 334 330 322 312 305 305 310 314
158 158 157 154 152 150 149 149 147 143 140 134 121 108 103 106 111 113 113 115 121 128 130 128 127 126 121 117 112 104 100 114 133 125 95 89 76 45 34 30 20 20 19 16 14 10 5 2 358 354 350 346 343 339 334 332 328 323 316 310 308 310 312
159 158 158 155 153 151 149 148 146 142 138 130 117 104 103 110 115 116 116 116 118 124 127 128 127 127 126 123 118 113 104 104 130 142 115 90 71 37 32 40 30 23 20 19 16 11 5 359 353 349 348 345 341 337 333 330 326 322 318 313 311 312 312
159 159 159 157 154 152 150 147 146 143 138 128 115 105 107 114 117 118 118 118 119 123 125 124 123 124 126 126 123 118 106 96 110 139 140 110 74 43 51 55 34 24 22 18 13 8 4 359 352 347 346 343 340 336 332 329 325 321 318 315 314 315 315
161 161 161 159 156 154 152 151 149 143 135 125 115 112 114 115 116 118 119 120 121 120 119 116 116 119 122 129 127 113 112 107 92 96 147 162 119 113 118 60 32 25 20 14 9 6 3 358 353 348 344 343 340 337 332 326 324 321 318 315 316 317 315
164 162 160 158 156 154 154 153 149 141 131 122 116 114 111 111 113 116 119 121 120 118 116 111 111 115 120 129 124 99 116 124 90 68 79 202 190 157 154 48 31 23 14 8 6 4 360 354 349 345 343 343 343 341 336 328 322 321 319 316 316 317 313
165 163 160 157 155 156 158 155 148 141 131 121 115 111 106 106 109 112 117 119 118 119 119 113 113 120 124 127 120 99 110 117 88 56 43 35 187 173 137 38 25 14 7 5 3 358 353 348 345 342 342 344 346 348 345 336 329 324 321 317 315 316 313
166 164 163 160 157 156 158 156 151 146 138 126 115 108 104 103 104 107 112 115 116 120 123 121 122 127 135 142 145 136 113 88 74 47 34 61 160 168 91 20 10 3 2 2 357 351 346 343 341 341 342 346 350 353 351 346 342 336 329 322 315 313 316
168 167 166 164 161 158 158 157 155 152 148 142 129 116 107 102 99 99 103 106 109 112 117 124 134 142 156 179 214 221 205 93 71 63 56 89 145 165 356 356 355 355 355 353 347 343 341 340 343 345 347 350 355 357 354 351 350 345 338 331 321 316 320
168 167 166 165 164 162 160 159 159 158 157 155 149 138 125 109 99 96 96 99 100 99 99 111 136 163 179 210 254 258 184 162 109 83 81 98 124 148 329 337 344 348 347 343 342 343 342 344 349 352 353 354 355 357 357 354 351 346 341 336 329 323 323
168 167 166 165 165 165 163 161 161 161 161 159 157 154 145 130 114 101 95 94 93 90 86 87 100 130 144 127 70 71 86 130 137 107 90 90 90 60 347 335 339 342 341 341 344 348 349 349 354 356 353 353 353 354 355 354 349 344 340 337 335 331 328
169 168 168 167 166 167 165 163 162 162 162 163 163 162 156 147 137 119 103 94 88 84 81 76 74 79 81 73 65 63 69 96 124 117 97 88 75 52 11 347 345 343 345 348 351 354 353 352 355 355 352 351 351 350 352 352 347 342 341 340 338 336 333
171 169 169 169 167 168 168 167 166 165 164 164 165 166 164 157 149 136 119 105 92 83 79 75 67 61 59 53 48 54 65 79 95 102 97 89 71 40 7 356 355 351 352 356 358 360 0 357 355 354 351 349 348 347 349 349 345 342 343 342 340 338 336
173 171 170 170 169 168 168 168 169 170 171 171 171 172 169 162 155 149 139 126 109 91 78 72 64 54 49 41 39 51 69 78 80 80 78 72 54 28 10 3 2 358 358 3 5 6 7 3 358 357 354 350 347 346 348 348 344 342 341 340 340 338 337
174 173 172 171 169 167 166 166 167 169 171 173 174 174 171 166 162 161 159 152 138 110 83 72 62 49 42 35 34 53 77 80 75 67 58 45 27 16 10 6 5 3 3 6 7 7 9 7 3 2 360 355 350 348 349 347 345 344 342 340 340 339 338
176 176 173 170 168 168 168 168 167 165 165 167 169 173 175 174 172 171 173 173 165 142 98 72 56 41 36 29 29 58 85 83 68 55 44 30 17 9 5 4 5 5 4 4 4 6 8 8 6 5 3 360 356 353 351 348 347 348 345 342 341 340 339
177 176 174 172 171 171 172 172 171 171 172 174 176 180 184 186 184 183 186 190 187 173 130 82 52 36 32 25 27 61 96 86 59 46 34 21 13 7 3 1 1 1 1 1 3 5 7 8 8 7 4 2 360 357 356 353 351 350 347 344 343 341 340
177 175 175 174 173 173 174 177 179 182 183 185 187 191 194 196 196 196 197 199 200 194 168 109 57 38 31 25 34 71 105 81 45 33 20 11 8 6 1 358 357 358 359 1 3 7 9 8 7 7 5 4 3 1 360 358 355 351 348 347 345 341 340
177 177 177 176 176 177 180 183 186 190 191 192 195 199 202 203 203 203 205 206 203 199 192 168 73 44 34 31 48 88 102 60 34 22 14 9 5 3 360 356 356 357 357 0 5 8 10 9 7 6 6 6 5 4 3 0 356 352 350 348 345 342 341